Printer-friendly version

IAU Minor Planet Center

Minor Planet Center

MPEC 2004-Q04 : COMET C/2004 K1 (CATALINA)

The following Minor Planet Electronic Circular may be linked-to from your own Web pages, but must not otherwise be redistributed electronically.


Read MPEC 2004-Q03 Read MPEC 2004-Q05


M.P.E.C. 2004-Q04                                Issued 2004 Aug. 16, 15:51 UT

     The Minor Planet Electronic Circulars contain information on unusual
         minor planets and routine data on comets.  They are published
   on behalf of Commission 20 of the International Astronomical Union by the
          Minor Planet Center, Smithsonian Astrophysical Observatory,
                          Cambridge, MA 02138, U.S.A.

                  Supported in part by the Brinson Foundation
             Prepared using the Tamkin Foundation Computer Network

                              MPC@CFA.HARVARD.EDU
          URL http://cfa-www.harvard.edu/iau/mpc.html  ISSN 1523-6714

                          COMET C/2004 K1 (CATALINA)

Observations:
    CK04K010  C2004 07 24.01302 19 22 19.41 -02 48 13.8          16.4 N EQ004A54
    CK04K010  C2004 07 24.01733 19 22 19.07 -02 48 12.0          16.6 N EQ004A54
    CK04K010  C2004 08 09.85568 18 55 36.48 -03 11 57.1                 EQ004246
    CK04K010  C2004 08 09.85639 18 55 36.42 -03 11 57.3                 EQ004246
    CK04K010  C2004 08 09.85691 18 55 36.39 -03 11 57.3                 EQ004246
    CK04K010  C2004 08 09.85781 18 55 36.30 -03 11 57.4                 EQ004246
    CK04K010  C2004 08 09.85838 18 55 36.24 -03 11 57.5                 EQ004246
    CK04K010  C2004 08 09.85905 18 55 36.19 -03 11 57.7                 EQ004246
    CK04K010  C2004 08 09.99617 18 55 23.68 -03 12 13.3          18.0 N EQ004A33
    CK04K010  C2004 08 10.00318 18 55 23.13 -03 12 14.8          17.4 N EQ004A33
    CK04K010  C2004 08 10.03122 18 55 20.54 -03 12 17.0          17.4 N EQ004A33
    CK04K010  C2004 08 10.84459 18 54 07.65 -03 13 50.3                 EQ004048
    CK04K010  C2004 08 10.86157 18 54 06.06 -03 13 51.8                 EQ004048
    CK04K010  C2004 08 10.86400 18 54 06.04 -03 13 51.9                 EQ004048
    CK04K010  C2004 08 11.87791 18 52 35.70 -03 15 51.5          18.2 N EQ004170
    CK04K010  C2004 08 11.88102 18 52 35.49 -03 15 51.4          17.9 N EQ004170
    CK04K010  C2004 08 11.89029 18 52 34.63 -03 15 53.4          18.3 N EQ004170
    CK04K010  C2004 08 12.82390 18 51 12.47 -03 17 45.0          18.6 N EQ004104
    CK04K010  C2004 08 12.82833 18 51 12.05 -03 17 46.6          18.3 N EQ004104
    CK04K010  C2004 08 12.83252 18 51 11.71 -03 17 45.4          18.0 N EQ004104
    CK04K010  C2004 08 12.83657 18 51 11.37 -03 17 46.7          18.6 N EQ004104
    CK04K010  C2004 08 15.89189 18 46 47.96 -03 24 09.3          18.2 T EQ004A41
    CK04K010  C2004 08 15.90490 18 46 46.90 -03 24 07.9          18.2 T EQ004A41
    CK04K010  C2004 08 15.91796 18 46 45.88 -03 24 11.0          19.2 T EQ004A41

Observer details:
048 Hradec Kralove.  Observer M. Lehky.  0.42-m f/2.7 reflector + CCD.
104 San Marcello Pistoiese.  Observers L. Tesi, A. Boattini, M. Tombelli,
    G. Fagioli.  Measurers G. Forti, L. Tesi, A. Boattini, M. Tombelli.
    0.60-m f/4 reflector + CCD.
170 Observatorio de Begues.  Observer J. Manteca.  0.36-m f/6.3
    Schmidt-Cassegrain + CCD.
246 Klet Observatory-KLENOT.  Observer M. Tichy.  1.06-m KLENOT Telescope
    + CCD.
A33 Volkssternwarte Kirchheim.  Observer B. Brinkmann.  0.5-m f/5.0 reflector
    + CCD.
A41 Rezman Observatory, Kamnik.  Observers R. Palcic, A. Spenko.  0.41-m f/3.1
    reflector + CCD.
A54 Ostrorog.  Observer M. Reszelski.  0.13-m reflector + CCD.

Orbital elements:
    C/2004 K1 (Catalina)
Epoch 2005 July 9.0 TT = JDT 2453560.5
T 2005 July 5.15962 TT                                  MPC
q   3.3989714            (2000.0)            P               Q
z  +0.0005836      Peri.   97.76144     -0.59812933     -0.76417161
 +/-0.0000523      Node   326.92403     -0.78990159     +0.61300746
e   0.9980162      Incl.  153.74538     +0.13526560     +0.20065791
Residuals in seconds of arc
040521 703  1.3-  0.4-    040612 704  0.0   0.6-    040717 048  1.6-  0.3+
040521 703  0.4-  0.4+    040612 644  0.1-  0.2+    040717 048  0.8-  0.5+
040521 703  0.1+  0.5+    040612 644  0.1-  0.3+    040719 415  0.2+  0.2-
040521 703  0.1-  0.2-    040613 D74  0.5+  0.4+    040719 415  0.2+  0.6-
040522 701  0.4+  0.5-    040613 D74  0.2+  0.5+    040719 048  0.7-  0.5+
040522 701  0.3+  0.1-    040613 360  0.2+  0.3-    040719 048  0.3-  0.4+
040523 J75  0.6-  0.2-    040613 360  0.3+  0.0     040719 048  1.1-  0.6+
040523 J75  0.4-  0.1-    040613 360  0.1+  0.1+    040719 048  0.8-  0.2+
040523 J95 (0.4+  2.5-)   040619 673  0.1+  0.3+    040719 048  0.3-  0.4+
040523 J95  0.7+  1.6-    040619 673  0.1+  0.3+    040719 048  0.4+  0.4+
040523 651  0.1-  0.5-    040619 673  0.2-  0.3+    040720 A46  0.3-  0.6-
040523 651  0.4-  0.0     040619 673  0.1-  0.3+    040720 A46  0.9+  1.4-
040523 850  1.8-  1.0+    040620 704  0.2-  0.1-    040720 A46  0.1+  1.6-
040523 651  1.3-  0.3+    040620 704  0.0   0.1-    040720 A46  0.2-  0.2-
040523 850  1.1+  0.1+    040620 704  0.4-  0.2+    040720 A46  0.1+  1.1-
040523 850  0.1-  0.8+    040620 704  0.3-  0.5+    040720 104  0.2+  0.2+
040523 H06  0.0   0.2-    040620 704  1.2-  0.1+    040720 104  0.0   0.2-
040523 H06  0.9-  0.3+    040621 461  0.0   0.1+    040720 104  0.0   0.2-
040523 850  0.0   0.4+    040621 461  0.0   0.0     040720 104  0.8+  0.1+
040523 H06  1.3-  0.3+    040621 461  0.0   0.2+    040721 048  0.5+  0.2-
040523 704  1.1+  0.5+    040621 461  0.1-  0.0     040721 048  0.2-  0.1-
040523 704  0.1+  0.0     040621 461  0.0   0.1+    040721 048  0.1-  0.0
040523 G90  0.2-  0.8+    040626 213  0.1-  0.2+    040721 048  0.3+  0.0
040523 704  0.9-  0.3-    040626 213  0.4-  0.7+    040721 048  0.6-  0.1-
040523 G90  0.2-  0.5+    040626 213  0.1+  0.0     040721 J87  0.2+  0.3-
040523 G90  0.2-  0.5+    040626 048  0.5+  0.5-    040721 J87  0.2+  0.1-
040523 704  0.8-  0.1+    040626 048  0.2+  0.3+    040721 J87  1.0+  0.3-
040523 704  0.4+  1.5+    040626 048  0.2-  0.3+    040722 A46  1.1+  1.1-
040523 926  0.2+  0.2+    040626 048  0.3-  0.4+    040722 A46  0.7+  0.2-
040523 926  0.3-  0.4+    040627 048  0.5+  0.4+    040722 A46  0.1+  0.7+
040523 926  0.8-  0.5+    040630 360  0.2-  0.5+    040722 785  0.0   0.0
040524 106  0.3+  0.2-    040630 360  0.7-  0.1+    040722 785  0.7+  0.3-
040524 106  0.9+  0.5+    040704 561  0.1+  0.3+    040722 785  0.5+  0.5-
040524 106  0.4-  1.7-    040704 561  0.2+  0.2+    040723 130  0.5+  0.4+
040524 J95  0.3+  0.2+    040704 561  0.2+  0.2+    040723 130  0.1+  0.3-
040524 J95  0.5+  1.5-    040706 048  0.2+  0.0     040723 130  0.1-  0.6-
040524 J95  0.1+  0.2+    040706 048  0.2-  0.4+    040723 213  1.3+  0.2+
040524 620  0.2-  0.3-    040706 048  0.1-  0.6+    040723 213  1.0+  0.4+
040524 620  0.2+  0.4+    040706 048  0.4-  0.7+    040724 A54  0.6-  1.7-
040524 701  0.6+  0.3-    040706 048  0.6+  0.6+    040724 A54  0.7+  0.3+
040524 704  0.0   0.2+    040707 785  0.3+  0.3-    040726 415  0.0   0.6-
040524 696  0.1-  0.4+    040707 785  0.9-  0.4-    040726 415  0.0   0.6-
040524 704  0.0   0.6+    040707 170  0.1+  0.6-    040726 415  0.1-  0.6-
040524 701  0.8+  0.1+    040707 170  0.1-  0.6-    040729 415  0.3+  0.7-
040524 704  0.1-  0.3+    040707 170  0.1+  0.1+    040729 415  0.2+  0.4-
040524 807  0.0   0.3+    040709 170  0.1-  0.3-    040804 048  1.0-  1.8+
040524 807  0.2+  0.3+    040709 170  0.2+  1.2-    040804 048  0.7-  1.0+
040524 696  0.1+  0.4+    040710 048  0.6+  0.1-    040804 048  0.3-  1.0+
040524 807  0.3-  0.5+    040710 048  0.3+  0.2+    040804 048  0.6+  0.5+
040524 704  0.1-  0.3+    040710 048  0.8+  0.3+    040804 048  0.1-  0.0
040524 926  0.6+  0.1-    040710 048  0.3-  0.2+    040805 415  0.8-  1.1-
040524 926  0.0   0.0     040710 048  0.8+  0.5+    040809 246  0.6+  0.4+
040524 926  1.4-  0.0     040711 104  0.5+  0.0     040809 246  0.6+  0.3+
040525 673  0.1-  0.4+    040711 104  0.8-  0.4+    040809 246  0.9+  0.3+
040525 673  0.0   0.6+    040711 104  0.0   0.9+    040809 246  0.8+  0.3+
040525 673  0.5+  0.4+    040711 104 (2.3+  1.1+)   040809 246  0.7+  0.3+
040525 673  0.0   0.5+    040713 360  0.1-  0.2+    040809 246  0.8+  0.2+
040525 349  0.4+  0.2+    040713 360  0.2+  0.1+    040809 A33  0.3-  0.1+
040525 349  0.5+  0.3-    040714 D74  0.3-  0.0     040810 A33  0.9+  0.6-
040525 360  0.1-  0.1+    040714 D74  0.5-  0.1-    040810 A33  0.1+  0.4+
040525 360  0.4-  0.4+    040714 561  0.6+  0.1-    040810 048  0.0   0.3+
040525 360  0.0   0.3+    040714 561  0.2-  0.0     040810 048  0.9-  0.7+
040527 360  0.1-  0.1+    040714 561  0.3+  0.1+    040810 048 (2.0+  0.9+)
040527 360  0.4-  0.1+    040716 785  0.3-  0.3+    040811 170  1.0-  0.2-
040527 360  0.2-  0.1+    040716 785  0.7-  0.5+    040811 170  0.0   0.3+
040608 204  0.1-  0.1+    040716 415  0.1+  0.1-    040811 170  0.4-  0.6-
040608 204  0.1-  0.1-    040716 415  0.0   0.3-    040812 104  0.3-  0.3-
040608 204  0.2-  0.2-    040716 415  0.6-  0.5-    040812 104  0.7-  1.4-
040612 704  0.1+  0.3-    040716 215  1.1+  0.7-    040812 104  0.3-  0.3+
040612 704  0.1+  0.0     040717 213  0.4-  0.2+    040812 104  0.0   0.5-
040612 644  0.0   0.6+    040717 048  1.1-  0.4+    040815 A41 (1.9-  2.1-)
040612 704  0.1-  0.1-    040717 213  0.2+  0.4-    040815 A41  1.2-  1.0+
040612 704  0.1-  0.2-    040717 048  1.2-  0.6+    040815 A41  0.2+  0.5-

     The "original" and "future" barycentric values of 1/a are +0.000953
and +0.000684 (+/- 0.000052) AU^-1, respectively.

Brian G. Marsden             (C) Copyright 2004 MPC           M.P.E.C. 2004-Q04

Read MPEC 2004-Q03 Read MPEC 2004-Q05


Our Web policy. Index to the CBAT/MPC/ICQ pages.


Valid HTML 4.01!